Norfolk, VA

7:32 AM EDT on June 19, 2018 (GMT -0400)
Norfolk International

Weather History for KORF - January, 2017

Change the Weather History Date:

Sunday, January 15, 2017

  Actual Average Record
Temperature  
Mean Temperature 42 °F 40 °F  
Max Temperature 43 °F 48 °F 76 °F (1907)
Min Temperature 40 °F 33 °F 11 °F (1994)
Degree Days  
Heating Degree Days 23 25  
Month to date heating degree days 334 370  
Since 1 July heating degree days 1404 1549  
Cooling Degree Days 0 0  
Month to date cooling degree days 0 0  
Year to date cooling degree days 0 0  
Moisture  
Dew Point 36 °F    
Average Humidity 82    
Maximum Humidity 93    
Minimum Humidity 70    
Precipitation  
Precipitation 0.00 in 0.12 in 1.28 in (1892)
Month to date precipitation 3.11 1.66  
Year to date precipitation 3.11 1.66  
Snow  
Snow 0.00 in 0.10 in 2.30 in (1957)
Month to date snowfall 5.3 1.2  
Since 1 July snowfall 5.3 2.4  
Snow Depth 0.00 in    
Sea Level Pressure  
Sea Level Pressure 30.35 in    
Wind  
Wind Speed 7 mph (NNE)    
Max Wind Speed 20 mph    
Max Gust Speed 23 mph    
Visibility 10 miles    
Events      
T = Trace of Precipitation, MM = Missing Value Source: NWS Daily Summary

Daily Weather History Graph

Daily Weather History Graph

Search for Another Location

Airport or City:

Astronomy

Jan. 15, 2017 Rise Set
Actual Time 7:16 AM EST 5:12 PM EST
Civil Twilight 6:48 AM EST 5:40 PM EST
Nautical Twilight 6:16 AM EST 6:12 PM EST
Astronomical Twilight 5:45 AM EST 6:43 PM EST
Moon 8:54 PM EST (1/15) 9:22 AM EST (1/15)
Length of Visible Light 10h 52m
Length of Day
9h 55m
Waning Gibbous, 87% of the Moon is Illuminated
Jan 15
Waning Gibbous
Jan 19
Last Quarter
Jan 27
New
Feb 3
First Quarter
Feb 10
Full

Hourly Weather History & Observations

Time (EST) Temp. Windchill Dew Point Humidity Pressure Visibility Wind Dir Wind Speed Gust Speed Precip Events Conditions
12:51 AM 41.0 °F - 39.0 °F 93% 30.27 in 10.0 mi Calm Calm - N/A   Overcast
1:31 AM 42.1 °F 40.2 °F 37.9 °F 85% 30.28 in 9.0 mi NNE 3.5 mph - N/A   Overcast
1:51 AM 42.1 °F 38.4 °F 37.9 °F 85% 30.28 in 10.0 mi NNE 5.8 mph - N/A   Overcast
2:39 AM 41.0 °F 35.8 °F 37.9 °F 89% 30.29 in 10.0 mi NNE 8.1 mph - N/A   Overcast
2:51 AM 41.0 °F 35.8 °F 37.9 °F 89% 30.30 in 10.0 mi NNE 8.1 mph - N/A   Overcast
3:00 AM 41.0 °F 35.8 °F 37.9 °F 89% 30.29 in 9.0 mi NE 8.1 mph - N/A   Overcast
3:26 AM 41.0 °F 37.1 °F 37.9 °F 89% 30.29 in 9.0 mi NE 5.8 mph - N/A   Overcast
3:51 AM 41.0 °F - 39.0 °F 93% 30.29 in 10.0 mi Calm Calm - N/A   Overcast
4:18 AM 41.0 °F - 39.9 °F 96% 30.29 in 10.0 mi Calm Calm - N/A   Overcast
4:48 AM 41.0 °F 37.1 °F 37.4 °F 87% 30.30 in 10.0 mi North 5.8 mph - N/A   Overcast
4:51 AM 41.0 °F 38.0 °F 37.9 °F 89% 30.30 in 10.0 mi North 4.6 mph - N/A   Overcast
5:05 AM 41.0 °F 37.1 °F 37.9 °F 89% 30.30 in 10.0 mi NNE 5.8 mph - N/A   Overcast
5:46 AM 41.0 °F - 39.2 °F 93% 30.30 in 10.0 mi Calm Calm - N/A   Overcast
5:51 AM 41.0 °F - 39.0 °F 93% 30.30 in 10.0 mi Calm Calm - N/A   Overcast
6:03 AM 39.9 °F - 39.0 °F 97% 30.30 in 10.0 mi Calm Calm - N/A   Scattered Clouds
6:51 AM 39.9 °F 35.1 °F 37.9 °F 93% 30.33 in 9.0 mi North 6.9 mph - N/A   Scattered Clouds
7:02 AM 41.0 °F 37.1 °F 37.9 °F 89% 30.34 in 10.0 mi North 5.8 mph - N/A   Mostly Cloudy
7:51 AM 41.0 °F 34.7 °F 39.0 °F 93% 30.35 in 7.0 mi North 10.4 mph - N/A   Overcast
8:12 AM 41.0 °F 35.2 °F 39.0 °F 93% 30.35 in 10.0 mi North 9.2 mph - N/A   Overcast
8:51 AM 41.0 °F 35.2 °F 37.9 °F 89% 30.38 in 10.0 mi North 9.2 mph - N/A   Overcast
9:46 AM 41.0 °F 33.5 °F 37.4 °F 87% 30.40 in 10.0 mi North 13.8 mph - N/A   Overcast
9:51 AM 41.0 °F 32.5 °F 37.0 °F 86% 30.39 in 10.0 mi NNE 17.3 mph - N/A   Overcast
10:44 AM 41.0 °F 33.5 °F 35.1 °F 79% 30.40 in 10.0 mi North 13.8 mph 23.0 mph N/A   Overcast
10:51 AM 41.0 °F 33.9 °F 36.0 °F 82% 30.40 in 10.0 mi North 12.7 mph - N/A   Overcast
11:01 AM 41.0 °F 33.9 °F 35.1 °F 79% 30.40 in 10.0 mi North 12.7 mph - N/A   Overcast
11:11 AM 41.0 °F 33.9 °F 35.1 °F 79% 30.40 in 10.0 mi North 12.7 mph - N/A   Overcast
11:51 AM 41.0 °F 34.3 °F 35.1 °F 79% 30.38 in 10.0 mi North 11.5 mph - N/A   Overcast
12:51 PM 43.0 °F 36.4 °F 34.0 °F 71% 30.37 in 10.0 mi North 12.7 mph - N/A   Mostly Cloudy
1:51 PM 42.1 °F 35.2 °F 33.1 °F 70% 30.35 in 10.0 mi NNE 12.7 mph - N/A   Overcast
2:51 PM 41.0 °F 34.7 °F 32.0 °F 70% 30.35 in 10.0 mi NNE 10.4 mph - N/A   Mostly Cloudy
3:51 PM 41.0 °F 34.3 °F 32.0 °F 70% 30.36 in 10.0 mi NNE 11.5 mph - N/A   Mostly Cloudy
4:51 PM 39.9 °F 33.9 °F 30.9 °F 70% 30.37 in 10.0 mi North 9.2 mph - N/A   Clear
5:51 PM 39.9 °F 36.7 °F 30.9 °F 70% 30.38 in 10.0 mi NNE 4.6 mph - N/A   Clear
6:51 PM 39.9 °F 35.1 °F 32.0 °F 73% 30.39 in 10.0 mi NE 6.9 mph - N/A   Clear
7:51 PM 39.9 °F 34.5 °F 33.1 °F 77% 30.39 in 10.0 mi NE 8.1 mph - N/A   Clear
8:51 PM 39.9 °F 35.1 °F 33.1 °F 77% 30.40 in 10.0 mi ENE 6.9 mph - N/A   Overcast
9:51 PM 41.0 °F - 34.0 °F 76% 30.40 in 10.0 mi Calm Calm - N/A   Overcast
10:51 PM 42.1 °F - 34.0 °F 73% 30.41 in 10.0 mi Calm Calm - N/A   Overcast
11:51 PM 42.1 °F - 34.0 °F 73% 30.42 in 10.0 mi Calm Calm - N/A   Overcast